CW8504 Weather Reports


time (UTC)temp
F
wind
direction
speed
knots
gust
knots
rain 1hr
in
rain 24hr
in
rain mn
in
humidity
%
barometer
mb
20260506185404 52 28 0.9 8.7 0.00 0.00 0.00 12 1017.8
20260506184904 52 37 2.6 7.8 0.00 0.00 0.00 11 1017.8
20260506184404 52 30 0.0 4.3 0.00 0.00 0.00 12 1017.7
20260506183904 52 7 3.5 7.8 0.00 0.00 0.00 10 1017.8
20260506183404 52 46 0.9 10.4 0.00 0.00 0.00 11 1017.9
20260506182904 52 61 1.7 5.2 0.00 0.00 0.00 10 1018.0
20260506182404 51 244 2.6 10.4 0.00 0.00 0.00 13 1018.0
20260506181904 51 38 4.3 13.9 0.00 0.00 0.00 10 1018.1
20260506181404 51 22 0.9 5.2 0.00 0.00 0.00 8 1018.2
20260506180904 51 42 2.6 7.0 0.00 0.00 0.00 8 1018.2
20260506175904 52 2 0.9 5.2 0.00 0.00 0.00 7 1018.2
20260506175403 52 173 0.0 0.0 0.00 0.00 0.00 12 1018.3
20260506174904 51 164 0.0 2.6 0.00 0.00 0.00 15 1018.4
20260506174404 51 152 0.0 1.7 0.00 0.00 0.00 13 1018.4
20260506173404 50 152 0.9 2.6 0.00 0.00 0.00 17 1018.5
20260506172904 49 212 0.0 0.0 0.00 0.00 0.00 20 1018.6
20260506171904 49 229 1.7 6.1 0.00 0.00 0.00 21 1018.8
20260506171404 48 27 0.0 1.7 0.00 0.00 0.00 22 1018.8
20260506170904 47 9 0.0 0.9 0.00 0.00 0.00 23 1019.0
20260506170404 46 5 0.0 0.0 0.00 0.00 0.00 23 1018.9
20260506165919 46 9 0.0 0.0 0.00 0.00 0.00 22 1019.0
20260506165404 46 7 0.9 2.6 0.00 0.00 0.00 24 1019.0
20260506164904 46 333 0.9 2.6 0.00 0.00 0.00 23 1019.0
20260506164404 46 331 0.0 2.6 0.00 0.00 0.00 23 1019.0
20260506163903 46 315 0.0 0.0 0.00 0.00 0.00 23 1019.1
20260506163404 46 315 0.0 2.6 0.00 0.00 0.00 27 1019.2
20260506162904 46 343 0.0 1.7 0.00 0.00 0.00 28 1019.2
20260506162404 45 349 0.0 0.0 0.00 0.00 0.00 30 1019.2
20260506160904 44 219 0.0 0.0 0.00 0.00 0.00 28 1019.4
20260506160404 44 219 0.0 1.7 0.00 0.00 0.00 29 1019.4
20260506155904 43 77 0.0 0.0 0.00 0.00 0.00 29 1019.4
20260506155404 43 76 0.0 0.0 0.00 0.00 0.00 31 1019.4
20260506154904 43 76 0.0 0.0 0.00 0.00 0.00 32 1019.5
20260506154404 42 75 0.0 0.0 0.00 0.00 0.00 37 1019.5
20260506153904 41 69 0.0 0.0 0.00 0.00 0.00 37 1019.5
20260506153404 41 69 0.0 0.0 0.00 0.00 0.00 38 1019.5
20260506152904 41 69 0.0 0.0 0.00 0.00 0.00 39 1019.5
20260506152404 40 69 0.0 0.0 0.00 0.00 0.00 40 1019.5
20260506151903 39 69 0.0 0.0 0.00 0.00 0.00 39 1019.5
20260506151404 39 69 0.0 0.0 0.00 0.00 0.00 40 1019.5
20260506150904 39 69 0.0 0.0 0.00 0.00 0.00 43 1019.5
20260506150404 38 70 0.0 0.0 0.00 0.00 0.00 43 1019.5
20260506145404 36 71 0.0 0.0 0.00 0.00 0.00 48 1019.4
20260506144404 35 72 0.0 0.0 0.00 0.00 0.00 49 1019.5
20260506143904 34 72 0.0 0.0 0.00 0.00 0.00 49 1019.6
20260506143404 33 188 0.0 0.0 0.00 0.00 0.00 51 1019.7
20260506142904 33 224 0.0 0.0 0.00 0.00 0.00 54 1019.7
20260506142404 32 214 0.0 0.0 0.00 0.00 0.00 55 1019.6
20260506141903 32 214 0.0 0.0 0.00 0.00 0.00 56 1019.7
20260506141404 31 214 0.0 0.0 0.00 0.00 0.00 55 1019.7
20260506140904 31 214 0.0 0.0 0.00 0.00 0.00 56 1019.7
20260506140405 31 214 0.0 0.0 0.00 0.00 0.00 56 1019.6
20260506135904 30 214 0.0 0.0 0.00 0.00 0.00 57 1019.7
20260506135404 30 214 0.0 0.0 0.00 0.00 0.00 58 1019.7
20260506134904 29 214 0.0 0.0 0.00 0.00 0.00 61 1019.7
20260506134404 29 214 0.0 0.0 0.00 0.00 0.00 63 1019.7
20260506133404 27 214 0.0 0.0 0.00 0.00 0.00 67 1019.6
20260506132904 26 214 0.0 0.0 0.00 0.00 0.00 68 1019.5
20260506132411 25 214 0.0 0.0 0.00 0.00 0.00 68 1019.5
20260506131904 24 214 0.0 0.0 0.00 0.00 0.00 68 1019.5
20260506130904 23 214 0.0 0.0 0.00 0.00 0.00 67 1019.3
20260506125904 23 214 0.0 0.0 0.00 0.00 0.00 67 1019.2
20260506124904 23 214 0.0 0.0 0.00 0.00 0.00 66 1019.0
20260506124404 23 214 0.0 0.0 0.00 0.00 0.00 66 1018.9
20260506123904 23 214 0.0 0.0 0.00 0.00 0.00 66 1018.9
20260506123404 23 214 0.0 0.0 0.00 0.00 0.00 66 1018.8
20260506121904 23 214 0.0 0.0 0.00 0.00 0.00 64 1018.7
20260506121404 23 214 0.0 0.0 0.00 0.00 0.00 63 1018.7
20260506120904 24 214 0.0 0.0 0.00 0.00 0.00 63 1018.7
20260506120404 24 214 0.0 0.0 0.00 0.00 0.00 63 1018.7
20260506114404 25 214 0.0 0.0 0.00 0.00 0.00 63 1018.5
20260506113904 25 214 0.0 0.0 0.00 0.00 0.00 63 1018.4
20260506113404 25 214 0.0 0.0 0.00 0.00 0.00 64 1018.4
20260506112904 25 214 0.0 0.0 0.00 0.00 0.00 63 1018.3
20260506112405 25 215 0.0 0.0 0.00 0.00 0.00 63 1018.2
20260506111904 25 214 0.0 0.0 0.00 0.00 0.00 63 1018.2
20260506111404 25 214 0.0 0.0 0.00 0.00 0.00 63 1018.2
20260506110904 25 214 0.0 0.0 0.00 0.00 0.00 61 1018.2
20260506110404 25 214 0.0 0.0 0.00 0.00 0.00 59 1018.1
20260506105904 25 214 0.0 0.0 0.00 0.00 0.00 60 1018.0
20260506105404 26 214 0.0 0.0 0.00 0.00 0.00 60 1018.0
20260506104904 26 214 0.0 0.0 0.00 0.00 0.00 60 1017.9
20260506104405 26 214 0.0 0.0 0.00 0.00 0.00 60 1017.9
20260506103904 26 214 0.0 0.0 0.00 0.00 0.00 60 1017.8
20260506103404 26 214 0.0 0.0 0.00 0.00 0.00 60 1017.8
20260506102404 27 214 0.0 0.0 0.00 0.00 0.00 60 1017.8
20260506101904 27 214 0.0 0.0 0.00 0.00 0.00 60 1017.7
20260506101404 27 214 0.0 0.0 0.00 0.00 0.00 60 1017.6
20260506100904 27 214 0.0 0.0 0.00 0.00 0.00 59 1017.6
20260506100404 27 215 0.0 0.0 0.00 0.00 0.00 58 1017.5
20260506095904 27 215 0.0 0.0 0.00 0.00 0.00 58 1017.5
20260506095404 27 215 0.0 0.0 0.00 0.00 0.00 58 1017.5
20260506094905 27 215 0.0 0.0 0.00 0.00 0.00 58 1017.4
20260506094404 28 215 0.0 0.0 0.00 0.00 0.00 58 1017.4
20260506093904 28 215 0.0 0.0 0.00 0.00 0.00 58 1017.4
20260506093404 28 215 0.0 0.0 0.00 0.00 0.00 57 1017.4
20260506092404 28 215 0.0 0.0 0.00 0.00 0.00 54 1017.3
20260506091904 28 215 0.0 0.0 0.00 0.00 0.00 54 1017.2
20260506090904 29 215 0.0 0.0 0.00 0.00 0.00 55 1017.2
20260506085907 29 215 0.0 0.0 0.00 0.00 0.00 52 1017.3
20260506084905 29 215 0.0 0.0 0.00 0.00 0.00 51 1017.1
20260506084404 30 215 0.0 0.0 0.00 0.00 0.00 51 1017.1
20260506083904 30 215 0.0 0.0 0.00 0.00 0.00 50 1017.1
20260506083404 30 215 0.0 0.0 0.00 0.00 0.00 50 1017.0
20260506082404 30 215 0.0 0.0 0.00 0.00 0.00 48 1016.9
20260506081904 31 215 0.0 0.0 0.00 0.00 0.00 47 1016.9
20260506081404 31 215 0.0 0.0 0.00 0.00 0.00 48 1016.9
20260506080904 31 215 0.0 0.0 0.00 0.00 0.00 47 1016.8
20260506080405 32 215 0.0 0.0 0.00 0.00 0.00 46 1016.8
20260506072905 34 215 0.0 0.0 0.00 0.00 0.00 41 1016.5
20260506072404 34 215 0.0 0.0 0.00 0.00 0.00 41 1016.5
20260506071904 34 215 0.0 0.0 0.00 0.00 0.00 41 1016.5
20260506071404 35 215 0.0 6.1 0.00 0.00 0.00 39 1016.4
20260506070904 35 219 0.0 2.6 0.00 0.00 0.00 38 1016.3
20260506070404 36 257 0.0 0.0 0.00 0.00 0.00 38 1016.3
20260506062404 38 257 0.0 0.0 0.00 0.00 0.00 31 1016.2
20260506061404 39 257 0.0 0.0 0.00 0.00 0.00 31 1015.9
20260506060904 39 257 0.0 0.0 0.00 0.00 0.00 31 1015.9
20260506060404 39 257 0.0 0.0 0.00 0.00 0.00 31 1015.8
20260506051403 40 248 0.0 0.0 0.00 0.00 0.00 27 1015.6
20260506050905 40 252 0.0 0.0 0.00 0.00 0.00 27 1015.6
20260506050404 40 248 0.0 0.0 0.00 0.00 0.00 26 1015.4
20260506044904 40 238 0.9 4.3 0.00 0.00 0.00 30 1015.1
20260506044404 40 233 0.0 0.0 0.00 0.00 0.00 31 1015.5
20260506043904 40 232 0.0 0.0 0.00 0.00 0.00 33 1015.3
20260506043404 39 232 0.0 0.0 0.00 0.00 0.00 33 1015.5
20260506042404 39 231 0.0 0.0 0.00 0.00 0.00 37 1015.4
20260506041904 39 355 0.0 0.0 0.00 0.00 0.00 36 1015.3
20260506041404 39 34 0.0 0.0 0.00 0.00 0.00 38 1015.4
20260506035404 39 34 0.0 0.0 0.00 0.00 0.00 43 1015.4
20260506034904 39 34 0.0 0.0 0.00 0.00 0.00 44 1015.3
20260506034404 39 34 0.0 0.0 0.00 0.00 0.00 43 1015.5
20260506033904 39 34 0.0 0.0 0.00 0.00 0.00 43 1015.3
20260506033404 39 32 0.0 0.0 0.00 0.00 0.00 43 1015.5
20260506032904 39 32 0.0 0.0 0.00 0.00 0.00 45 1015.6
20260506032404 39 32 2.6 7.8 0.00 0.00 0.00 45 1015.3
20260506031904 39 13 4.3 10.4 0.00 0.00 0.00 44 1015.1
20260506031404 40 38 5.2 10.4 0.00 0.00 0.00 44 1015.2
20260506030907 40 48 4.3 8.7 0.00 0.00 0.00 47 1015.1
20260506030404 41 32 6.1 10.4 0.00 0.00 0.00 46 1015.1
20260506025904 41 0 4.3 11.3 0.00 0.00 0.00 44 1015.0
20260506025404 42 32 4.3 7.0 0.00 0.00 0.00 43 1014.6
20260506024904 42 35 4.3 10.4 0.00 0.00 0.00 43 1014.4
20260506024404 43 43 4.3 8.7 0.00 0.00 0.00 42 1014.1
20260506023904 43 43 0.9 7.8 0.00 0.00 0.00 40 1014.1
20260506023404 44 45 2.6 10.4 0.00 0.00 0.00 39 1013.8
20260506022903 44 36 6.1 13.0 0.00 0.00 0.00 37 1013.5
20260506021911 46 36 6.1 13.0 0.00 0.00 0.00 34 1013.0
20260506021404 46 33 2.6 7.0 0.00 0.00 0.00 31 1013.1
20260506020904 47 46 2.6 5.2 0.00 0.00 0.00 29 1012.6
20260506020404 47 37 3.5 10.4 0.00 0.00 0.00 27 1012.7
20260506015904 48 347 3.5 10.4 0.00 0.00 0.00 26 1012.4
20260506015404 48 35 1.7 8.7 0.00 0.00 0.00 24 1012.3
20260506014405 49 52 0.0 0.9 0.00 0.00 0.00 23 1012.1
20260506013904 50 324 0.0 7.8 0.00 0.00 0.00 22 1011.7
20260506013404 50 23 0.0 4.3 0.00 0.00 0.00 20 1011.6
20260506012905 51 33 0.9 4.3 0.00 0.00 0.00 19 1011.5
20260506012404 51 29 0.0 2.6 0.00 0.00 0.00 18 1011.6
20260506011905 52 54 0.0 6.1 0.00 0.00 0.00 18 1011.5
20260506011407 52 44 0.9 5.2 0.00 0.00 0.00 17 1011.3
20260506004904 54 48 0.9 4.3 0.00 0.00 0.00 15 1010.9
20260506004404 54 50 0.0 2.6 0.00 0.00 0.00 14 1011.0
20260506003904 54 5 0.0 7.8 0.00 0.00 0.00 16 1011.0
20260506003404 54 57 0.9 7.8 0.00 0.00 0.00 14 1011.0
20260506001905 53 32 1.7 8.7 0.00 0.00 0.00 15 1011.1
20260506001404 53 45 0.9 7.8 0.00 0.00 0.00 15 1011.1
20260506000904 53 45 0.9 7.8 0.00 0.00 0.00 13 1011.0
20260506000404 53 19 4.3 10.4 0.00 0.00 0.00 13 1010.9
20260505235903 53 32 3.5 7.8 0.00 0.00 0.00 12 1010.9
20260505235404 54 35 0.9 7.0 0.00 0.00 0.00 14 1010.9
20260505234904 54 50 0.9 4.3 0.00 0.00 0.00 13 1010.9
20260505234403 54 25 1.7 5.2 0.00 0.00 0.00 14 1010.9
20260505233904 55 15 1.7 7.8 0.00 0.00 0.00 13 1010.8
20260505233403 55 19 1.7 10.4 0.00 0.00 0.00 13 1010.8
20260505232404 57 38 4.3 11.3 0.00 0.00 0.00 10 1010.8
20260505231904 59 37 1.7 8.7 0.00 0.00 0.00 10 1010.7
20260505231404 59 243 0.9 12.2 0.00 0.00 0.00 10 1010.6
20260505230904 59 241 6.1 17.4 0.00 0.00 0.00 7 1010.6
20260505225904 60 249 5.2 8.7 0.00 0.00 0.00 7 1010.5
20260505225404 59 279 0.9 4.3 0.00 0.00 0.00 8 1010.4
20260505224904 59 272 6.1 17.4 0.00 0.00 0.00 6 1010.4
20260505223404 59 298 1.7 7.0 0.00 0.00 0.00 12 1010.3
20260505221404 58 202 1.7 14.8 0.00 0.00 0.00 9 1010.3
20260505220903 58 262 1.7 7.8 0.00 0.00 0.00 9 1010.3
20260505220404 58 356 7.8 18.2 0.00 0.00 0.00 11 1010.4
20260505215904 58 59 3.5 10.4 0.00 0.00 0.00 12 1010.1
20260505214904 58 48 2.6 6.1 0.00 0.00 0.00 10 1010.1
20260505214404 58 36 1.7 10.4 0.00 0.00 0.00 13 1010.2
20260505213904 58 248 0.9 10.4 0.00 0.00 0.00 15 1010.2
20260505212903 57 10 0.0 5.2 0.00 0.00 0.00 14 1010.3
20260505212404 56 273 1.7 7.0 0.00 0.00 0.00 19 1010.5
20260505211907 56 307 0.9 7.8 0.00 0.00 0.00 16 1010.3
20260505211404 55 9 0.9 6.1 0.00 0.00 0.00 14 1010.2
20260505210904 56 89 0.9 11.3 0.00 0.00 0.00 14 1010.3
20260505210405 56 358 0.0 2.6 0.00 0.00 0.00 16 1010.3
20260505205404 56 43 0.0 5.2 0.00 0.00 0.00 17 1010.2
20260505204905 56 42 3.5 13.9 0.00 0.00 0.00 15 1010.1
20260505204411 56 28 0.9 4.3 0.00 0.00 0.00 16 1010.2
20260505203904 56 51 2.6 8.7 0.00 0.00 0.00 15 1010.2
20260505203404 57 340 5.2 13.0 0.00 0.00 0.00 14 1010.3
20260505202904 57 238 0.9 4.3 0.00 0.00 0.00 17 1010.4
20260505202404 57 184 0.9 1.7 0.00 0.00 0.00 17 1010.3
20260505201904 57 336 0.0 8.7 0.00 0.00 0.00 13 1010.4
20260505201403 58 28 7.8 14.8 0.00 0.00 0.00 14 1010.3
20260505200405 57 238 1.7 10.4 0.00 0.00 0.00 17 1010.3
20260505195404 58 39 1.7 10.4 0.00 0.00 0.00 14 1010.3
20260505194404 58 242 0.9 7.8 0.00 0.00 0.00 14 1010.4
20260505193911 57 38 3.5 12.2 0.00 0.00 0.00 15 1010.4
20260505192904 57 281 0.0 13.9 0.00 0.00 0.00 16 1010.5
20260505191404 57 39 1.7 6.1 0.00 0.00 0.00 16 1010.6
20260505190405 56 33 1.7 7.8 0.00 0.00 0.00 18 1010.8
20260505185904 55 45 3.5 8.7 0.00 0.00 0.00 17 1010.7